This is the latest recevied weather packets stored in our database for station/object JA0ZJX-13. If no packets are shown the sender has not sent any weather packets the latest 10 day(s).
| Time | Temp. | Humidity | Pressure | Rain* | Wind** | Luminosity | Snow |
|---|---|---|---|---|---|---|---|
| 1777776220 | 20.56° C | 45% | 1009.6 hPa | 0 mm | - | 424 W/m² | - |
| 1777775614 | 20.56° C | 46% | 1009.8 hPa | 0 mm | - | 464 W/m² | - |
| 1777775024 | 20.56° C | 46% | 1009.8 hPa | 0 mm | - | 399 W/m² | - |
| 1777774413 | 21.11° C | 46% | 1009.9 hPa | 0 mm | - | 557 W/m² | - |
| 1777773823 | 21.11° C | 46% | 1010.1 hPa | 0 mm | - | 812 W/m² | - |
| 1777773217 | 20° C | 48% | 1010.4 hPa | 0 mm | - | 976 W/m² | - |
| 1777772607 | 20° C | 49% | 1010.6 hPa | 0 mm | - | 1324 W/m² | - |
| 1777772016 | 20° C | 48% | 1010.8 hPa | 0 mm | - | 420 W/m² | - |
| 1777771407 | 19.44° C | 48% | 1010.6 hPa | 0 mm | - | 427 W/m² | - |
| 1777770820 | 19.44° C | 47% | 1010.9 hPa | 0 mm | - | 380 W/m² | - |
| 1777770209 | 19.44° C | 48% | 1011.4 hPa | 0 mm | - | 255 W/m² | - |
| 1777769618 | 19.44° C | 48% | 1011.6 hPa | 0 mm | - | 257 W/m² | - |
| 1777769012 | 19.44° C | 49% | 1011.7 hPa | 0 mm | - | 257 W/m² | - |
| 1777768419 | 19.44° C | 47% | 1011.7 hPa | 0 mm | - | 295 W/m² | - |
| 1777767808 | 19.44° C | 49% | 1012 hPa | 0 mm | - | 346 W/m² | - |
| 1777767216 | 18.33° C | 51% | 1012.3 hPa | 0 mm | - | 476 W/m² | - |
| 1777766610 | 17.22° C | 59% | 1012.2 hPa | 0 mm | - | 425 W/m² | - |
| 1777766019 | 16.67° C | 60% | 1012.3 hPa | 0 mm | - | 323 W/m² | - |
| 1777765408 | 16.11° C | 61% | 1012.6 hPa | 0 mm | - | 216 W/m² | - |
| 1777764816 | 15.56° C | 66% | 1013 hPa | 0 mm | - | 237 W/m² | - |
| 1777764209 | 15° C | 67% | 1012.7 hPa | 0 mm | - | 274 W/m² | - |
| 1777763618 | 14.44° C | 71% | 1012.7 hPa | 0 mm | - | 399 W/m² | - |
| 1777763008 | 14.44° C | 71% | 1013 hPa | 0 mm | - | 223 W/m² | - |
| 1777762416 | 13.89° C | 71% | 1013.4 hPa | 0 mm | - | 213 W/m² | - |
| 1777761809 | 13.33° C | 72% | 1013.5 hPa | 0 mm | - | 174 W/m² | - |
* Rain latest hour (hover to see other rain measurements)
** Current wind speed in m/s (hover to see current wind gust speed)